Flag Weather past 2 weeks in Hamilton, Ontario, Canada

Now
46 °F

Passing clouds.


Feels Like: 35 °F
Forecast: N/A
Wind: 48 mph from Southwest

Location: Hamilton Airport

Current Time: Nov 24, 2014 at 5:51:59 PM

Latest Report: Nov 24, 2014 at 5:00 PM


Visibility: 15 mi

Pressure: 29.37 "Hg

Humidity: 71%

Dew point: 37 °F

Location of HamiltonLocation

Historic Weather in Hamilton — Graph

°F

Hamilton temperature yesterday

Maximum temperature yesterday: 48 °F (at 2:00 PM)
Minimum temperature yesterday: 41 °F (at 3:00 AM)
Average temperature yesterday: 44 °F

Past Weeks' High & Low Weather Summary

 TemperatureHumidityPressure
High63 °F (Nov 11, 3:00 PM)100% (Nov 10, 9:00 PM)30.47 "Hg (Nov 10, 9:00 PM)
Low9 °F (Nov 19, 6:00 AM)45% (Nov 11, 3:00 PM)29.17 "Hg (Nov 24, 12:00 PM)
Average32 °F77%29.97 "Hg
* Reported Nov 9 4:00 PM — Nov 24 4:00 PM, Hamilton, Weather by CustomWeather, © 2014

Note: Actual official high and low records may vary slightly from our data, if they occured in-between our weather recording intervals... More about our weather records

Advertising

Hamilton weather history for previous 24 hours

 ConditionsComfort  
Time TempWeatherWind HumidityBarometerVisibility
4:00 PM
Nov 24
54 °FBroken clouds.39 mph67%29.28 "Hg15 mi
3:00 PM55 °FBroken clouds.24 mph82%29.23 "Hg15 mi
2:00 PM54 °FSprinkles. Partly sunny.21 mph88%29.21 "Hg15 mi
1:00 PM55 °FRain showers. Cloudy.25 mph88%29.20 "Hg5 mi
12:46 PM57 °FRain showers. Mostly cloudy.29 mph82%29.18 "Hg2 mi
12:00 PM61 °FPassing clouds.28 mph72%29.17 "Hg15 mi
11:00 AM61 °FBroken clouds.28 mph77%29.21 "Hg15 mi
10:00 AM57 °FSprinkles. Mostly cloudy.23 mph82%29.23 "Hg15 mi
9:00 AM55 °FSprinkles. Partly sunny.23 mph88%29.23 "Hg15 mi
8:04 AM55 °FLight rain. Broken clouds.31 mph88%29.22 "Hg12 mi
7:00 AM55 °FLight rain. Overcast.30 mph94%29.21 "Hg15 mi
6:00 AM55 °FLight rain. Mostly cloudy.28 mph88%29.20 "Hg8 mi
5:00 AM54 °FMostly cloudy.23 mph88%29.21 "Hg15 mi
4:00 AM52 °FLight rain. Mostly cloudy.15 mph88%29.25 "Hg15 mi
3:00 AM50 °FLight rain. Mostly cloudy.16 mph94%29.30 "Hg10 mi
2:00 AM48 °FLight rain. Fog.15 mph94%29.35 "Hg4 mi
1:00 AM48 °FLight rain. Fog.18 mph94%29.43 "Hg4 mi
12:00 AM46 °FSprinkles. Mostly cloudy.14 mph87%29.52 "Hg10 mi
11:00 PM
Nov 23
43 °FSprinkles. Mostly cloudy.8 mph87%29.61 "Hg12 mi
10:00 PM41 °FOvercast.9 mph93%29.64 "Hg15 mi
9:00 PM43 °FMostly cloudy.9 mph87%29.69 "Hg15 mi
8:00 PM45 °FOvercast.10 mph81%29.73 "Hg15 mi
7:00 PM45 °FMostly cloudy.6 mph81%29.78 "Hg15 mi
6:00 PM45 °FMostly cloudy.6 mph81%29.82 "Hg15 mi
5:00 PM45 °FPartly cloudy.6 mph87%29.83 "Hg12 mi
Weather by CustomWeather, © 2014

See weather overviewHow to use our weather pages